星链-3656 (STARLINK-3656 )

导读 | 星芒AI

STARLINK-3656 是 SpaceX Starlink 项目中的一颗低轨通信卫星,属于该星座的众多卫星之一,旨在为全球用户提供高速互联网服务。该卫星采用可重复使用的设计,配备先进通信设备,运行于约 550 公里高度的近地轨道。它通过与其他 Starlink 卫星协同工作,实现全球范围内的宽带覆盖,特别服务于偏远和网络基础设施薄弱的地区。STARLINK-3656 于 2023 年发射,是 SpaceX 扩展其卫星互联网网络计划的一部分。

基本信息
目录编号:
51979
目录名称:
STARLINK-3656
国际标识:
2022-025Z
轨道中心:
EARTH
卫星名称:
星链-3656
卫星全名:
星链-3656 (STARLINK-3656 )
卫星状态:
已陨落 最后检测时间 2025-09-25
发射日期:
2022-03-09 UTC
国别 :
美国 (US)
星等 :
--
轨道信息
数据来源 国际轨道数据
星历时间: 2025-09-25T04:10:58+0800
轨道信息已过期87天
半长轴: 6557.054km
偏心率: 0.0005452
轨道倾角: 53.206°
近地点辐角 308.867°
升交点赤经 35.914°
平近点角 51.189°
近地点: 175.344km
远地点: 182.494km
周期: 88.069分钟
每日圈数: 16.350826
详细信息
固有亮度:
5
最大亮度:
2.5
卫星平台:
Starlink v1.5
覆盖范围:
全球
运营商:
太空探索技术公司
运营商所在国:
美国
制造商(研发单位):
太空探索技术公司
制造商所在国:
美国
使用方式:
暂无
卫星简介
星链(Starlink)计划是由太空探索技术公司(SpaceX)提出的一个巨型低轨卫星互联网星座项目,计划在2019年至2024年间在太空搭建由约1.2万颗卫星组成的“星链”网络,其中1584颗将部署在地球上空550千米处的近地轨道,并从2020年开始工作。该卫星仍在工作。